www.pogodaiklimat.ru

Погода и климат >> Архив погоды >> Аргентина >> Санкт-Роза


ПОГОДА в Санкт-Розе

  • Прогноз погоды в Санкт-Розе
  • Монитор погоды в Санкт-Розе

АРХИВ ПОГОДЫ в Санкт-Розе

Время (UTC), дата Ветер
(напр.,м/с)
 
Видим.   Явления Облачность Т
(С)
Тd
(С)
f
(%)
Тe
(С)
Тes
(С)
Комфортность P
(гПа)
Po
(гПа)
Тmin
(С)
Tmax
(С)
R
(мм)
R24
(мм)
S
(см)
06 12.02 ЮВ 2 30 км ясно +9.9 +5.3 73 +9 +9 1029.3 1006.2
09 12.02 ЮЗ 2 30 км ясно +8.8 +4.3 73 +8 +8 1029.4 1006.4
12 12.02 ЮВ 1 30 км ясно +13.6 +5.6 58 +14 +20 1030.4 1007.4 +7.5 +18.1
15 12.02 С 2 30 км ясно +19.0 +3.1 35 +20 +38 опасность
простуды
1029.8 1006.9
18 12.02 С 5 30 км ясно +23.2 +3.7 28 +23 +32 комфорт 1026.7 1003.8
21 12.02 С 5 30 км ясно +22.6 +1.6 25 +22 +24 комфорт 1023.5 1000.6
00 13.02 С 3 30 км ясно +16.9 +7.2 53 +17 +17 1022.7 999.8 +13.6 +23.6
03 13.02 С 3 30 км ясно +13.5 +7.4 67 +12 +12 1022.1 999.4
06 13.02 С 3 30 км ясно +11.6 +8.2 80 +10 +10 1019.9 997.3
09 13.02 С 4 30 км 8/5 1200 м
[Sc Ac trans Cs]
+13.5 +9.0 74 +12 +12 1018.6 996.1
12 13.02 С 7 30 км 9/0
[Ac As Cs]
+15.3 +9.6 69 +14 +14 1019.1 996.4 +10.6 +23.8
15 13.02 С 7 8000 м слаб. дождь туман 10/8 1500 м
[Sc Ac As]
+16.9 +12.0 73 +16 +16 1018.4 995.7
18 13.02 С 3 30 км в посл. час дождь 9/3 2000 м
[Sc Ac As]
+20.5 +14.2 67 +23 +27 комфорт 1016.8 994.2 0.0
21 13.02 С 3 30 км в посл. час дождь 10/0
[Ac As]
+19.5 +14.6 73 +21 +22 комфорт 1015.9 993.3
00 14.02 В 5 3500 м дождь 10/5 1050 м
[Sc Ac As]
+16.1 +14.4 90 +15 +15 1016.2 993.6 +15.3 +21.4 7
03 14.02 С 6 30 км {гроза, дождь} 8/6 1200 м
[Sc Ac As]
+15.7 +13.6 87 +14 +14 1015.9 993.3
06 14.02 С 2 30 км {гроза, дождь} 4/3 1200 м
[Sc Ci sp]
+14.3 +12.3 88 +14 +14 1015.0 992.5 3
09 14.02 СВ 2 9000 м дымка 3/0
[Ac trans]
+12.8 +11.5 92 +12 +12 1014.5 991.8
12 14.02 С 5 15 км дымка 1/0
[Ac cast]
+18.0 +14.0 77 +18 +20 1015.2 992.6 +11.8 +18.3 10
15 14.02 С 4 30 км 1/0
[Ac cast]
+24.9 +15.8 57 +28 +40 жарко 1014.4 992.2
18 14.02 СВ 3 30 км ясно +28.5 +14.4 42 +31 +43 душно 1013.2 991.0
21 14.02 С 5 30 км ясно +28.9 +15.6 44 +32 +34 душно 1012.6 990.4
03 15.02 С 4 30 км ясно +20.1 +16.5 80 +23 +23 комфорт 1015.2 993.0
06 15.02 С 4 30 км ясно +18.0 +15.7 86 +18 +18 1014.9 992.9
09 15.02 С 3 30 км ясно +17.2 +15.3 89 +17 +17 1015.2 993.0
12 15.02 СЗ 3 30 км ясно +21.5 +17.0 76 +25 +30 комфорт 1016.3 994.2 +14.5 +24.0
15 15.02 С 4 30 км ясно +28.9 +17.0 49 +33 +44 очень
душно
1016.2 994.2
18 15.02 С 5 30 км ясно +33.0 +13.4 31 +34 +42 очень
жарко
1014.4 992.5
21 15.02 С 6 30 км ясно +32.1 +13.0 31 +33 +34 жарко 1013.2 991.3
00 16.02 С 3 30 км ясно +24.2 +15.3 58 +27 +27 жарко 1014.2 992.2 +21.5 +34.0
03 16.02 С 4 30 км ясно +21.2 +16.3 74 +25 +25 комфорт 1015.6 993.7
06 16.02 С 4 30 км ясно +18.5 +16.0 85 +19 +19 1014.6 992.8
09 16.02 С 3 30 км ясно +17.9 +14.7 82 +18 +18 1014.2 992.2
12 16.02 С 6 30 км ясно +21.0 +16.6 76 +25 +27 комфорт 1015.3 993.2 +15.0 +24.2
15 16.02 С 8 30 км ясно +29.3 +14.9 42 +32 +35 душно 1014.6 992.6
18 16.02 С 7 30 км ясно +33.1 +11.9 28 +33 +37 жарко 1012.5 990.6
21 16.02 С 9 30 км ясно +30.9 +12.8 33 +32 +32 жарко 1010.9 989.0
00 17.02 С 6 30 км ясно +24.9 +16.2 58 +28 +28 жарко 1011.7 989.7 +21.0 +33.7
03 17.02 С 6 30 км ясно +21.3 +17.1 77 +25 +25 комфорт 1012.0 990.2
06 17.02 С 5 30 км ясно +19.7 +16.8 83 +22 +22 комфорт 1010.9 989.2
09 17.02 С 4 30 км ясно +16.9 +15.6 92 +16 +16 1010.5 988.6
12 17.02 С 7 12 км дымка ясно +22.0 +16.8 72 +26 +27 душно 1011.0 989.0 +15.7 +24.9
15 17.02 С 6 30 км ясно +30.9 +17.4 44 +35 +41 очень
душно
1009.7 988.0
18 17.02 С 8 30 км ясно +35.3 +16.6 33 +38 +41 очень
душно
1007.6 986.0
21 17.02 С 8 30 км ясно +33.3 +16.0 35 +36 +36 очень
душно
1006.2 984.5
00 18.02 С 5 30 км ясно +27.1 +16.2 51 +30 +30 душно 1006.8 985.0 +22.0 +36.0
03 18.02 С 6 30 км ясно +24.1 +18.6 71 +29 +29 душно 1007.2 985.6
06 18.02 С 4 30 км ясно +20.5 +19.6 95 +25 +25 комфорт 1005.7 984.2
09 18.02 С 3 30 км 3/0
[Ci sp]
+19.7 +18.4 92 +23 +23 комфорт 1005.2 983.6
12 18.02 С 5 30 км 9/0
[Ac As Cs]
+23.2 +19.3 79 +30 +31 очень
душно
1006.3 984.6 +18.8 +27.1
15 18.02 Ю 3 30 км 1/0
[Ac cast Ci sp]
+30.6 +18.0 47 +35 +48 очень
душно
1005.7 984.2
18 18.02 Ю 3 30 км 1/0
[Ac cast]
+35.5 +14.5 29 +37 +48 душно 1004.0 982.5
21 18.02 ЮЗ 4 30 км 1/1
[Cu med, cong Ac cast]
+37.3 +5.2 14 +35 +37 очень
жарко
1002.7 981.3
00 19.02 Ю 2 7000 м пыль 1/0
[Ac cast]
+31.0 +6.0 21 +29 +29 жарко 1004.5 983.0 +23.2 +38.0
03 19.02 Ю 2 30 км 1/0
[Ac trans]
+26.3 +3.0 22 +25 +25 комфорт 1006.9 985.4

 

Местоположение метеостанции Санкт-Роза (Аргентина): широта -36.56 долгота -64.26 высота над уровнем моря 191 м.

В архиве по умолчанию представлена погода в Санкт-Розе за последнюю неделю. Архивные данные за месяц целиком и за предыдущие месяцы, начиная с января 2011 года, Вы можете получить, выбрав интересующий диапазон дат из раскрывающегося списка и нажав кнопку "Ввод!".


*Определитесь, кто Вы:
робот инопланетянин человек

Внимание! Время в таблицах - всемирное. Для получения местного времени необходимо прибавить поправку, которая равна -3 ч.

Смотрите также архив погоды в соседних городах и на ближайших метеорологических станциях:

Погода в Хенераль Пико (Аргентина) (106 км)
Погода в Лабоулайе (Аргентина) (282 км)
Погода в Боливаре (Аргентина) (288 км)
Погода в Баия-Бланке (Аргентина) (304 км)
Погода в Вилья Рейнольдс (Аргентина) (331 км)
Погода в Хунине (Аргентина) (377 км)
Погода в Рио-Куарто (Аргентина) (386 км)
Погода в Азуле (Аргентина) (392 км)
Погода в Трес Арройос (Аргентина) (405 км)
Погода в Сан-Луисе (Аргентина) (414 км)

Пояснения к столбцам:

Ветер - указаны скорость ветра в м/с - средняя за 10 мин, порывы в срок и между сроками (в фигурных скобках) и направление, откуда дует ветер: С - северный, СВ - северо-восточный, В - восточный, ЮВ - юго-восточный, Ю - южный, ЮЗ - юго-западный, З - западный, СЗ - северо-западный.
Видимость - горизонтальная дальность видимости в метрах или километрах. При видимости от 1 до 10 км при отсутствии осадков обычно наблюдается дымка, при ухудшении видимости до 1 км и менее - туман. В сухую погоду видимость может ухудшаться дымом, пылью или мглою.
Явления - указаны атмосферные явления, наблюдавшиеся в срок или в последний час перед сроком; фигурными скобками обозначены явления, наблюдавшиеся между сроками (за 1-3 часа до срока); квадратными скобками обозначены град или гололедные отложения с указанием их диаметра в мм.
Облачность - указаны через наклонную черту общая и нижняя облачность в баллах и высота нижней границы облаков в метрах; квадратными скобками обозначены формы облаков: Ci - перистые, Cs - перисто-слоистые, Cc - перисто-кучевые, Ac - высококучевые, As - высокослоистые, Sc - слоисто-кучевые, Ns - слоисто-дождевые, Cu - кучевые, Cb - кучево-дождевые. Подробнее классификацию облаков см. в Атласе облаков (PDF).
T - Температура воздуха - температура, измеренная на высоте 2 м над землей.
Td - Температура точки росы - температура, при понижении до которой содержащийся в воздухе водяной пар достигнет насыщения.
f - Относительная влажность воздуха - влажноcть воздуха, измеренная на высоте 2 м над землей.
Te - Эффективная температура - температура, которую ощущает одетый по сезону человек в тени. Характеристика душности погоды. При расчете учитывается влияние влажности воздуха и скорости ветра на теплоощущения человека.
Tes - Эффективная температура на солнце - температура, которую ощущает человек, с поправкой на солнечный нагрев. Характеристика знойности погоды. Зависит от высоты солнца над горизонтом, облачности и скорости ветра. Ночью, в пасмурную погоду, а также при ветре 12 м/с и более поправка равна нулю.
P - Атмосферное давление - приведенное к уровню моря атмосферное давление.
Po - Атмосферное давление - измеренное на уровне метеостанции атмосферное давление.
Tmin - Минимальная температура - минимум температуры воздуха на высоте 2 м над землей.
Tmax - Максимальная температура - максимум температуры воздуха на высоте 2 м над землей.
R - Количество осадков - Количество выпавших осадков за период времени, мм. При наведении курсора мыши на число - период времени, за который выпало указанное количество осадков.
R24 - Количество осадков - Количество выпавших осадков за 24 часа, мм.
S - Снежный покров - Высота снежного покрова, см. При наведении курсора мыши на число - состояние снежного покрова и степень покрытия местности в баллах.